Terminal Aerodrome Forecast
Issued by NWS

Home | Current Version | Previous Version | Text Only | Print | Product List | Glossary On
Versions: 1 2 3 4 5 6 7 8 9 10 11 12 13 14 15 16 17 18 19 20 21 22 23 24 25 26 27 28 29 30 31 32 33 34 35 36 37 38 39 40 41 42 43 44 45 46 47 48 49 50
000
FTUS45 KBOU 050024 AAA
TAFBJC
TAF AMD
KBJC 050024Z 0500/0524 VRB05KT P6SM FEW100 SCT180
      TEMPO 0500/0502 27015G25KT
     FM050300 25012KT P6SM SCT100 BKN160
     FM051300 27014KT P6SM SCT080 BKN160
     FM051700 32014G24KT P6SM SCT070 BKN140
     FM052100 34014G24KT P6SM SCT070 BKN110=

USA.gov is the U.S. government's official web portal to all federal, state and local government web resources and services.